Weather reports worldwide

Advertisment
Belgrad, Serbia (13274): temperature & dewpoint: 07.08.2020 01:00:00 - 13.08.2020 01:00:00 (CEST)Belgrad, Serbia (13274): wind speed: 07.08.2020 01:00:00 - 13.08.2020 01:00:00 (CEST)Belgrad, Serbia (13274): wind direction: 07.08.2020 01:00:00 - 13.08.2020 01:00:00 (CEST)Belgrad, Serbia (13274): reduced air pressure: 07.08.2020 01:00:00 - 13.08.2020 01:00:00 (CEST)Belgrad, Serbia (13274): visibility: 07.08.2020 01:00:00 - 13.08.2020 01:00:00 (CEST)
Date & Time tt [°C] td [°C] ff [km/h] ff [kn] dd ppp [hPa] vv [km]
13.08.2020 01:00:00 - - - - - - -
13.08.2020 00:00:00 - - - - - - -
12.08.2020 23:00:00 - - - - - - -
12.08.2020 22:00:00 - - - - - - -
12.08.2020 21:00:00 - - - - - - -
12.08.2020 20:00:00 - - - - - - -
12.08.2020 19:00:00 - - - - - - -
12.08.2020 18:00:00 - - - - - - -
12.08.2020 17:00:00 - - - - - - -
12.08.2020 16:00:00 - - - - - - -
12.08.2020 15:00:00 - - - - - - -
12.08.2020 14:00:00 - - - - - - -
12.08.2020 13:00:00 - - - - - - -
12.08.2020 12:00:00 - - - - - - -
12.08.2020 11:00:00 - - - - - - -
12.08.2020 10:00:00 - - - - - - -
12.08.2020 09:00:00 - - - - - - -
12.08.2020 08:00:00 - - - - - - -
12.08.2020 07:00:00 - - - - - - -
12.08.2020 06:00:00 - - - - - - -
12.08.2020 05:00:00 - - - - - - -
12.08.2020 04:00:00 - - - - - - -
12.08.2020 03:00:00 - - - - - - -
12.08.2020 02:00:00 - - - - - - -
12.08.2020 01:00:00 - - - - - - -
12.08.2020 00:00:00 - - - - - - -
11.08.2020 23:00:00 - - - - - - -
11.08.2020 22:00:00 - - - - - - -
11.08.2020 21:00:00 - - - - - - -
11.08.2020 20:00:00 - - - - - - -
11.08.2020 19:00:00 - - - - - - -
11.08.2020 18:00:00 - - - - - - -
11.08.2020 17:00:00 - - - - - - -
11.08.2020 16:00:00 - - - - - - -
11.08.2020 15:00:00 - - - - - - -
11.08.2020 14:00:00 - - - - - - -
11.08.2020 13:00:00 - - - - - - -
11.08.2020 12:00:00 - - - - - - -
11.08.2020 11:00:00 - - - - - - -
11.08.2020 10:00:00 - - - - - - -
11.08.2020 09:00:00 - - - - - - -
11.08.2020 08:00:00 - - - - - - -
11.08.2020 07:00:00 - - - - - - -
11.08.2020 06:00:00 - - - - - - -
11.08.2020 05:00:00 - - - - - - -
11.08.2020 04:00:00 - - - - - - -
11.08.2020 03:00:00 - - - - - - -
11.08.2020 02:00:00 - - - - - - -
11.08.2020 01:00:00 - - - - - - -
11.08.2020 00:00:00 - - - - - - -
10.08.2020 23:00:00 - - - - - - -
10.08.2020 22:00:00 - - - - - - -
10.08.2020 21:00:00 - - - - - - -
10.08.2020 20:00:00 - - - - - - -
10.08.2020 19:00:00 - - - - - - -
10.08.2020 18:00:00 - - - - - - -
10.08.2020 17:00:00 - - - - - - -
10.08.2020 16:00:00 - - - - - - -
10.08.2020 15:00:00 - - - - - - -
10.08.2020 14:00:00 - - - - - - -
10.08.2020 13:00:00 - - - - - - -
10.08.2020 12:00:00 - - - - - - -
10.08.2020 11:00:00 - - - - - - -
10.08.2020 10:00:00 - - - - - - -
10.08.2020 09:00:00 - - - - - - -
10.08.2020 08:00:00 - - - - - - -
10.08.2020 07:00:00 22,1 17,0 4 2 SSE 1015,4 30
10.08.2020 06:00:00 20,1 17,9 4 2 SSE 1015,2 20
10.08.2020 05:00:00 20,0 16,6 4 2 SSE 1014,9 20
10.08.2020 04:00:00 20,2 17,0 4 2 S 1014,5 20
10.08.2020 03:00:00 20,5 17,0 4 2 SE 1014,6 30
10.08.2020 02:00:00 20,7 17,5 4 2 S 1014,5 20
10.08.2020 01:00:00 21,2 17,7 4 2 S 1014,3 20
10.08.2020 00:00:00 21,5 17,7 4 2 S 1014,6 20
09.08.2020 23:00:00 22,0 17,0 4 2 S 1014,8 20
09.08.2020 22:00:00 22,1 17,7 4 2 S 1014,8 20
09.08.2020 21:00:00 22,3 18,1 4 2 SSW 1014,6 20
09.08.2020 20:00:00 23,5 18,8 4 2 SSE 1014,1 20
09.08.2020 19:00:00 24,7 15,3 11 6 ESE 1013,9 20
09.08.2020 18:00:00 30,0 16,6 7 4 N 1013,3 20
09.08.2020 17:00:00 31,8 15,7 7 4 NNE 1013,0 20
09.08.2020 16:00:00 31,6 14,9 7 4 NE 1013,5 20
09.08.2020 15:00:00 32,0 15,5 4 2 NE 1013,9 20
09.08.2020 14:00:00 30,8 15,4 4 2 WNW 1014,5 20
09.08.2020 13:00:00 29,4 16,5 4 2 WNW 1015,0 20
09.08.2020 12:00:00 28,9 17,9 4 2 WNW 1015,6 20
09.08.2020 11:00:00 27,5 18,7 4 2 W 1015,9 20
09.08.2020 10:00:00 26,2 18,9 4 2 WSW 1015,9 20
09.08.2020 09:00:00 24,4 19,0 4 2 W 1016,0 20
09.08.2020 08:00:00 22,4 19,6 4 2 WSW 1016,2 20
09.08.2020 07:00:00 21,3 19,7 4 2 SW 1015,7 20
09.08.2020 06:00:00 20,8 19,3 4 2 SSW 1015,4 20
09.08.2020 05:00:00 21,0 19,5 4 2 WSW 1015,3 20
09.08.2020 04:00:00 21,3 19,5 4 2 W 1015,3 20
09.08.2020 03:00:00 21,6 19,7 4 2 SE 1015,6 20
09.08.2020 02:00:00 23,6 20,4 4 2 N 1015,3 20
09.08.2020 01:00:00 24,0 20,4 4 2 N 1015,3 20
09.08.2020 00:00:00 23,9 19,7 0 0 N 1015,5 20
08.08.2020 23:00:00 25,4 20,1 4 2 N 1015,8 20
08.08.2020 22:00:00 26,3 17,8 7 4 NNE 1015,9 20
08.08.2020 21:00:00 26,9 19,5 7 4 NNE 1016,2 20
08.08.2020 20:00:00 28,4 20,8 4 2 NNW 1015,8 20
08.08.2020 19:00:00 30,1 19,0 4 2 NNE 1015,5 20
08.08.2020 18:00:00 30,0 20,1 7 4 NNW 1015,5 20
08.08.2020 17:00:00 30,1 20,5 4 2 NW 1015,8 20
08.08.2020 16:00:00 30,2 20,2 7 4 NW 1016,1 20
08.08.2020 15:00:00 29,4 19,7 7 4 WNW 1016,5 20
08.08.2020 14:00:00 28,6 18,9 7 4 NW 1017,1 20
08.08.2020 13:00:00 27,3 18,0 7 4 WNW 1017,5 10
08.08.2020 12:00:00 26,3 17,5 7 4 W 1018,0 10
08.08.2020 11:00:00 24,9 18,9 7 4 NW 1018,3 10
08.08.2020 10:00:00 23,8 19,3 7 4 NW 1018,3 10
08.08.2020 09:00:00 21,7 19,0 7 4 NNE 1018,5 10
08.08.2020 08:00:00 20,4 18,1 7 4 NNE 1018,3 10
08.08.2020 07:00:00 19,3 18,2 4 2 NE 1018,1 8
08.08.2020 06:00:00 18,4 17,8 4 2 E 1017,7 5
08.08.2020 05:00:00 18,9 17,8 4 2 ENE 1017,1 10
08.08.2020 04:00:00 19,1 17,9 7 4 NNE 1016,6 20
08.08.2020 03:00:00 18,9 17,9 0 0 N 1016,6 20
08.08.2020 02:00:00 18,8 17,9 4 2 NNE 1016,7 20
08.08.2020 01:00:00 19,0 17,8 4 2 SSW 1017,1 20
08.08.2020 00:00:00 19,4 18,5 18 10 S 1017,0 10
07.08.2020 23:00:00 20,5 19,3 4 2 W 1017,6 10
07.08.2020 22:00:00 22,1 20,7 7 4 SSE 1016,6 20
07.08.2020 21:00:00 21,4 20,1 4 2 SE 1016,1 20
07.08.2020 20:00:00 22,0 20,0 4 2 WNW 1015,0 20
07.08.2020 19:00:00 24,1 20,5 4 2 NW 1014,9 20
07.08.2020 18:00:00 27,9 18,7 7 4 NNW 1015,2 20
07.08.2020 17:00:00 30,1 17,9 4 2 N 1014,4 30
07.08.2020 16:00:00 29,4 15,8 7 4 NNE 1014,9 30
07.08.2020 15:00:00 30,8 15,0 7 4 NNE 1014,9 30
07.08.2020 14:00:00 29,8 16,2 4 2 NE 1015,4 30
07.08.2020 13:00:00 30,1 15,7 11 6 NNE 1015,7 30
07.08.2020 12:00:00 28,8 15,4 7 4 NE 1015,9 30
07.08.2020 11:00:00 27,6 14,3 4 2 NE 1016,0 30
07.08.2020 10:00:00 27,3 14,8 7 4 NE 1016,1 30
07.08.2020 09:00:00 26,2 15,5 4 2 S 1016,2 20
07.08.2020 08:00:00 23,4 15,4 0 0 N 1016,4 20
07.08.2020 07:00:00 22,1 14,4 4 2 ESE 1016,4 20
07.08.2020 06:00:00 22,3 13,4 4 2 E 1016,1 20
07.08.2020 05:00:00 23,2 13,1 7 4 ESE 1015,4 20
07.08.2020 04:00:00 21,8 15,3 11 6 ENE 1015,5 20
07.08.2020 03:00:00 21,7 15,1 4 2 NE 1015,3 20
07.08.2020 02:00:00 21,9 14,9 14 8 NNE 1013,8 20
07.08.2020 01:00:00 22,3 14,9 14 8 NNE 1013,8 20

tt = temperature
td = dewpoint
ff = wind speed
dd = wind direction
ppp = reduced air pressure
vv = visibility

Next stations